Regional Weather Roundup
Issued by NWS Goodland, KS

Home | Current Version | Previous Version | Text Only | Print | Product List | Glossary Off
Versions: 1 2 3 4 5 6 7 8 9 10 11 12 13 14 15 16 17 18 19 20 21 22 23 24 25 26 27 28 29 30 31 32 33 34 35 36 37 38 39 40 41 42 43 44 45 46 47 48 49 50

000
ASUS43 KGLD 300059
RWRGLD

GOODLAND FORECAST AREA HOURLY WEATHER ROUNDUP
NATIONAL WEATHER SERVICE GOODLAND KS
700 PM MDT FRI JUL 29 2016

...OFFICIAL OBSERVATIONS...

CITY           SKY/WX    TMP DP  RH WIND       PRES   REMARKS
GOODLAND KS    SUNNY     75  64  68 SE9       30.08S
HILL CITY KS   CLEAR     81  63  54 E5        30.01S
IMPERIAL NEB   MOSUNNY   78  63  59 SE6       30.06S
MCCOOK NEB     CLOUDY    82  61  48 NE5       30.03R
AKRON CO       CLOUDY    74  57  55 E14       30.11S
BURLINGTON CO  SUNNY     78  56  46 SE10      30.10R
LIMON CO       CLOUDY    75  57  53 SE17G25   30.14S
$$

...UNOFFICIAL OBSERVATIONS...

CITY           SKY/WX    TMP DP  RH WIND       PRES   REMARKS
COLBY KS       CLEAR     81  64  57 S8        30.08R
LENORA KS        N/A     82  32  16 MISG        N/A
NORTON KS      CLEAR     81  54  39 E5        30.01R
SHARON SPRINGS   N/A     80  65  59 SE8G15      N/A
KIT CARSON CO    N/A     77  59  53 MISG        N/A
YUMA CO          N/A     75  60  58 SE9         N/A
$$




USA.gov is the U.S. government's official web portal to all federal, state and local government web resources and services.